Back to catalog

STARLINK-32019

AliveCommunicationsVLEO
NORAD 60147·PAYLOAD·🇺🇸 United States

Launched Jun 27, 2024 from Cape Canaveral Space Force Station

Loading…

Next Passes (next 24 hours)

TLE

FreshSource: CelesTrak SupGP

Epoch: Sep 14, 2026, 14:40 UTC

1 60147C 24120N   26257.61159722  .00061308  00000+0  18116-2 0  2575
2 60147  53.1578 159.0380 0001285 103.1172  70.3043 15.34356484    17

Track STARLINK-32019 in real time with AllMySat

Download on the App Store